This is the latest recevied weather packets stored in our database for station/object IV3CGM-13. If no packets are shown the sender has not sent any weather packets the latest 10 day(s).
| Time | Temp. | Humidity | Pressure | Rain* | Wind** | Luminosity | Snow |
|---|---|---|---|---|---|---|---|
| 1777811964 | 22.78° C | 41% | 1017.7 hPa | 0 mm | - | 768 W/m² | - |
| 1777811277 | 21.67° C | 41% | 1017.7 hPa | 0 mm | - | 794 W/m² | - |
| 1777810589 | 22.78° C | 41% | 1017.8 hPa | 0 mm | - | 809 W/m² | - |
| 1777809902 | 21.67° C | 41% | 1017.8 hPa | 0 mm | - | 818 W/m² | - |
| 1777809165 | 21.67° C | 42% | 1017.9 hPa | 0 mm | - | 821 W/m² | - |
| 1777808464 | 21.67° C | 42% | 1017.9 hPa | 0 mm | - | 822 W/m² | - |
| 1777807777 | 21.67° C | 44% | 1017.9 hPa | 0 mm | - | 843 W/m² | - |
| 1777807089 | 21.11° C | 43% | 1018.1 hPa | 0 mm | - | 693 W/m² | - |
| 1777806402 | 20.56° C | 44% | 1018.2 hPa | 0 mm | - | 845 W/m² | - |
| 1777805665 | 21.11° C | 42% | 1018.3 hPa | 0 mm | - | 865 W/m² | - |
| 1777804965 | 20.56° C | 43% | 1018.4 hPa | 0 mm | - | 844 W/m² | - |
| 1777804278 | 20.56° C | 47% | 1018.5 hPa | 0 mm | - | 852 W/m² | - |
| 1777803589 | 20° C | 43% | 1018.6 hPa | 0 mm | - | 844 W/m² | - |
| 1777802902 | 20° C | 46% | 1018.7 hPa | 0 mm | - | 788 W/m² | - |
| 1777802165 | 20° C | 48% | 1018.7 hPa | 0 mm | - | 777 W/m² | - |
| 1777801465 | 20.56° C | 43% | 1018.8 hPa | 0 mm | - | 817 W/m² | - |
| 1777800777 | 19.44° C | 45% | 1018.8 hPa | 0 mm | - | 790 W/m² | - |
| 1777800090 | 19.44° C | 46% | 1018.8 hPa | 0 mm | - | 744 W/m² | - |
| 1777799403 | 20° C | 44% | 1018.9 hPa | 0 mm | - | 620 W/m² | - |
| 1777798666 | 19.44° C | 46% | 1018.9 hPa | 0 mm | - | 600 W/m² | - |
| 1777797965 | 19.44° C | 45% | 1018.9 hPa | 0 mm | - | 637 W/m² | - |
| 1777797278 | 19.44° C | 46% | 1018.8 hPa | 0 mm | - | 679 W/m² | - |
| 1777796590 | 18.89° C | 48% | 1018.9 hPa | 0 mm | - | 660 W/m² | - |
| 1777795902 | 19.44° C | 46% | 1019 hPa | 0 mm | - | 602 W/m² | - |
| 1777795166 | 18.33° C | 48% | 1019 hPa | 0 mm | - | 562 W/m² | - |
* Rain latest hour (hover to see other rain measurements)
** Current wind speed in m/s (hover to see current wind gust speed)